BAW1858 HEAX-LGAV

Flight info

Callsign BAW1858
Flight time 1h 32m
Altitude 30000
Route NOZ1B NOZ L551 ANTAR UN133 KPC UN137 RIPLI UL995 VARIX VARI1R
Aircraft A320/M-SDE3FGHIKRWXY/S

Departure

Time 2026-05-08 05:08
Airport Alexandria International Airport (HEAX)

Arrival

Time 2026-05-08 06:40
Airport Athens Eleftherios Venizelos International Airport (LGAV)
Time Latitude Longitude Altitude Speed Heading
2026-05-08 04:18 30.93037 29.69659 175 ft 0 kts 44°
2026-05-08 04:51 30.93030 29.69651 174 ft 3 kts 46°
2026-05-08 04:51 30.93020 29.69634 174 ft 3 kts 82°
2026-05-08 04:52 30.93021 29.69613 175 ft 3 kts 118°
2026-05-08 04:52 30.93032 29.69597 175 ft 3 kts 154°
2026-05-08 04:52 30.93042 29.69592 175 ft 0 kts 168°
2026-05-08 05:00 30.93031 29.69593 175 ft 3 kts 178°
2026-05-08 05:00 30.92983 29.69590 174 ft 11 kts 171°
2026-05-08 05:00 30.92909 29.69628 173 ft 13 kts 176°
2026-05-08 05:00 30.92845 29.69559 173 ft 13 kts 233°
2026-05-08 05:01 30.92786 29.69467 173 ft 15 kts 234°
2026-05-08 05:01 30.92723 29.69365 173 ft 16 kts 233°
2026-05-08 05:01 30.92650 29.69257 173 ft 18 kts 232°
2026-05-08 05:01 30.92575 29.69146 173 ft 18 kts 231°
2026-05-08 05:02 30.92500 29.69039 173 ft 17 kts 212°
2026-05-08 05:02 30.92387 29.69067 171 ft 18 kts 147°
2026-05-08 05:02 30.92280 29.69169 169 ft 21 kts 139°
2026-05-08 05:02 30.92159 29.69287 166 ft 24 kts 143°
2026-05-08 05:03 30.92017 29.69409 163 ft 26 kts 144°
2026-05-08 05:03 30.91863 29.69539 160 ft 23 kts 144°
2026-05-08 05:03 30.91729 29.69656 157 ft 26 kts 142°
2026-05-08 05:03 30.91583 29.69782 154 ft 26 kts 144°
2026-05-08 05:04 30.91434 29.69918 151 ft 28 kts 140°
2026-05-08 05:04 30.91275 29.70072 148 ft 31 kts 140°
2026-05-08 05:04 30.91097 29.70227 142 ft 33 kts 144°
2026-05-08 05:04 30.90908 29.70387 140 ft 34 kts 145°
2026-05-08 05:05 30.90752 29.70509 137 ft 16 kts 148°
2026-05-08 05:05 30.90653 29.70591 135 ft 19 kts 143°
2026-05-08 05:05 30.90575 29.70583 136 ft 8 kts 232°
2026-05-08 05:05 30.90540 29.70543 135 ft 6 kts 216°
2026-05-08 05:06 30.90539 29.70542 135 ft 0 kts 216°
2026-05-08 05:06 30.90530 29.70534 135 ft 7 kts 218°
2026-05-08 05:06 30.90507 29.70438 135 ft 16 kts 292°
2026-05-08 05:06 30.90546 29.70393 134 ft 0 kts 318°
2026-05-08 05:07 30.90566 29.70372 135 ft 12 kts 319°
2026-05-08 05:07 30.90716 29.70243 137 ft 53 kts 323°
2026-05-08 05:07 30.91163 29.69856 149 ft 104 kts 323°
2026-05-08 05:08 30.91856 29.69248 162 ft 143 kts 323°
2026-05-08 05:08 30.92734 29.68490 302 ft 162 kts 324°
2026-05-08 05:08 30.93618 29.67712 787 ft 160 kts 328°
2026-05-08 05:08 30.94608 29.67105 1234 ft 161 kts 345°
2026-05-08 05:09 30.95701 29.66705 1519 ft 176 kts 347°
2026-05-08 05:09 30.96969 29.66523 1733 ft 193 kts 17°
2026-05-08 05:09 30.98103 29.67431 1949 ft 213 kts 58°
2026-05-08 05:09 30.98786 29.69070 2331 ft 237 kts 66°
2026-05-08 05:10 30.99431 29.70887 3021 ft 246 kts 67°
2026-05-08 05:10 31.00735 29.74674 4641 ft 256 kts 66°
2026-05-08 05:10 31.01413 29.76611 5421 ft 260 kts 65°
2026-05-08 05:11 31.02117 29.78592 5907 ft 266 kts 65°
2026-05-08 05:11 31.02975 29.80501 6069 ft 265 kts 50°
2026-05-08 05:11 31.04311 29.81960 6112 ft 263 kts 36°
2026-05-08 05:11 31.05742 29.83247 6108 ft 263 kts 36°
2026-05-08 05:12 31.07194 29.84556 6113 ft 263 kts 36°
2026-05-08 05:12 31.08641 29.85866 6115 ft 263 kts 36°
2026-05-08 05:12 31.10091 29.87186 6116 ft 263 kts 37°
2026-05-08 05:12 31.11535 29.88502 6117 ft 263 kts 37°
2026-05-08 05:13 31.12957 29.89799 6111 ft 263 kts 37°
2026-05-08 05:13 31.14398 29.91111 6109 ft 263 kts 37°
2026-05-08 05:13 31.15839 29.92425 6110 ft 263 kts 37°
2026-05-08 05:13 31.17371 29.93576 6107 ft 261 kts 21°
2026-05-08 05:14 31.19138 29.94025 6109 ft 261 kts
2026-05-08 05:14 31.20924 29.93673 6138 ft 265 kts 339°
2026-05-08 05:14 31.22579 29.92662 6845 ft 268 kts 333°
2026-05-08 05:14 31.24220 29.91625 7638 ft 268 kts 334°
2026-05-08 05:15 31.25854 29.90613 8389 ft 270 kts 334°
2026-05-08 05:15 31.27527 29.89581 9147 ft 272 kts 334°
2026-05-08 05:15 31.29213 29.88541 9883 ft 274 kts 334°
2026-05-08 05:15 31.30922 29.87482 10395 ft 285 kts 334°
2026-05-08 05:16 31.32741 29.86355 10531 ft 307 kts 334°
2026-05-08 05:16 31.34669 29.85157 10681 ft 326 kts 333°
2026-05-08 05:16 31.36704 29.83885 11134 ft 334 kts 333°
2026-05-08 05:16 31.38764 29.82594 11724 ft 338 kts 333°
2026-05-08 05:17 31.40849 29.81284 12332 ft 341 kts 333°
2026-05-08 05:17 31.42948 29.79966 12941 ft 344 kts 333°
2026-05-08 05:17 31.45078 29.78629 13545 ft 348 kts 333°
2026-05-08 05:17 31.47223 29.77281 14114 ft 351 kts 332°
2026-05-08 05:18 31.49395 29.75916 14662 ft 353 kts 332°
2026-05-08 05:18 31.51568 29.74552 15211 ft 355 kts 332°
2026-05-08 05:18 31.53729 29.73194 15742 ft 358 kts 332°
2026-05-08 05:18 31.55939 29.71803 16273 ft 360 kts 331°
2026-05-08 05:19 31.58159 29.70403 16813 ft 362 kts 331°
2026-05-08 05:19 31.60393 29.68995 17366 ft 365 kts 331°
2026-05-08 05:19 31.62637 29.67581 17917 ft 367 kts 331°
2026-05-08 05:19 31.64901 29.66155 18466 ft 370 kts 330°
2026-05-08 05:20 31.67152 29.64735 18968 ft 372 kts 330°
2026-05-08 05:20 31.69443 29.63292 19502 ft 374 kts 331°
2026-05-08 05:20 31.71739 29.61844 20056 ft 375 kts 331°
2026-05-08 05:20 31.74049 29.60387 20614 ft 376 kts 331°
2026-05-08 05:21 31.76356 29.58930 21138 ft 377 kts 331°
2026-05-08 05:21 31.78676 29.57463 21641 ft 378 kts 331°
2026-05-08 05:21 31.81002 29.55991 22133 ft 380 kts 331°
2026-05-08 05:21 31.83309 29.54532 22603 ft 381 kts 331°
2026-05-08 05:22 31.85648 29.53050 23069 ft 382 kts 331°
2026-05-08 05:22 31.87996 29.51560 23517 ft 384 kts 331°
2026-05-08 05:22 31.90351 29.50062 23933 ft 385 kts 331°
2026-05-08 05:22 31.92710 29.48559 24305 ft 386 kts 331°
2026-05-08 05:23 31.95077 29.47052 24667 ft 387 kts 331°
2026-05-08 05:23 31.97448 29.45543 25025 ft 388 kts 331°
2026-05-08 05:23 31.99827 29.44031 25373 ft 389 kts 331°
2026-05-08 05:23 32.02214 29.42516 25718 ft 390 kts 331°
2026-05-08 05:24 32.04588 29.41007 26067 ft 390 kts 331°
2026-05-08 05:24 32.06989 29.39480 26419 ft 392 kts 331°
2026-05-08 05:24 32.09390 29.37953 26758 ft 393 kts 331°
2026-05-08 05:24 32.11803 29.36416 27098 ft 394 kts 330°
2026-05-08 05:25 32.14192 29.34891 27425 ft 395 kts 330°
2026-05-08 05:25 32.16615 29.33344 27757 ft 396 kts 330°
2026-05-08 05:25 32.19031 29.31802 28215 ft 394 kts 330°
2026-05-08 05:25 32.21435 29.30266 28710 ft 391 kts 330°
2026-05-08 05:26 32.23820 29.28741 29197 ft 389 kts 330°
2026-05-08 05:26 32.26200 29.27218 29676 ft 387 kts 330°
2026-05-08 05:26 32.28565 29.25701 30088 ft 386 kts 330°
2026-05-08 05:27 32.33302 29.22658 30177 ft 389 kts 330°
2026-05-08 05:27 32.37263 29.20111 30178 ft 389 kts 330°
2026-05-08 05:28 32.42806 29.16549 30181 ft 389 kts 330°
2026-05-08 05:28 32.46800 29.13982 30175 ft 389 kts 330°
2026-05-08 05:29 32.51535 29.10929 30177 ft 389 kts 330°
2026-05-08 05:29 32.56304 29.07843 30184 ft 389 kts 330°
2026-05-08 05:30 32.61062 29.04771 30185 ft 389 kts 330°
2026-05-08 05:30 32.65822 29.01692 30184 ft 389 kts 330°
2026-05-08 05:30 32.68169 29.00167 30338 ft 392 kts 330°
2026-05-08 05:31 32.70613 28.98577 30189 ft 406 kts 330°
2026-05-08 05:31 32.75644 28.95315 30182 ft 414 kts 330°
2026-05-08 05:32 32.80717 28.92029 30181 ft 415 kts 330°
2026-05-08 05:32 32.85758 28.88764 30179 ft 414 kts 330°
2026-05-08 05:33 32.90832 28.85461 30180 ft 414 kts 330°
2026-05-08 05:33 32.95892 28.82156 30182 ft 414 kts 330°
2026-05-08 05:34 33.00918 28.78879 30187 ft 414 kts 330°
2026-05-08 05:34 33.05979 28.75575 30187 ft 413 kts 330°
2026-05-08 05:35 33.11023 28.72272 30191 ft 413 kts 329°
2026-05-08 05:35 33.16025 28.68983 30188 ft 413 kts 329°
2026-05-08 05:36 33.21057 28.65673 30193 ft 412 kts 329°
2026-05-08 05:36 33.26085 28.62368 30190 ft 412 kts 329°
2026-05-08 05:37 33.31115 28.59063 30192 ft 411 kts 329°
2026-05-08 05:37 33.36111 28.55779 30192 ft 411 kts 329°
2026-05-08 05:38 33.41127 28.52475 30193 ft 411 kts 329°
2026-05-08 05:38 33.46136 28.49170 30191 ft 410 kts 329°
2026-05-08 05:39 33.51103 28.45887 30195 ft 410 kts 329°
2026-05-08 05:39 33.56109 28.42564 30187 ft 410 kts 329°
2026-05-08 05:40 33.61095 28.39255 30189 ft 409 kts 329°
2026-05-08 05:40 33.66057 28.35965 30190 ft 409 kts 329°
2026-05-08 05:41 33.71042 28.32653 30193 ft 409 kts 329°
2026-05-08 05:41 33.76026 28.29341 30189 ft 408 kts 329°
2026-05-08 05:42 33.80967 28.26043 30192 ft 408 kts 328°
2026-05-08 05:42 33.85926 28.22702 30187 ft 408 kts 328°
2026-05-08 05:43 33.90870 28.19346 30190 ft 407 kts 328°
2026-05-08 05:43 33.95819 28.15994 30185 ft 407 kts 328°
2026-05-08 05:44 34.00733 28.12672 30193 ft 407 kts 328°
2026-05-08 05:44 34.05669 28.09326 30189 ft 406 kts 328°
2026-05-08 05:45 34.10575 28.05992 30165 ft 399 kts 328°
2026-05-08 05:45 34.15364 28.02742 30192 ft 393 kts 328°
2026-05-08 05:46 34.20125 27.99509 30187 ft 392 kts 328°
2026-05-08 05:46 34.24883 27.96264 30191 ft 392 kts 328°
2026-05-08 05:47 34.29606 27.93035 30190 ft 392 kts 327°
2026-05-08 05:47 34.34351 27.89785 30185 ft 392 kts 327°
2026-05-08 05:48 34.39110 27.86525 30177 ft 392 kts 327°
2026-05-08 05:48 34.43836 27.83288 30178 ft 392 kts 327°
2026-05-08 05:49 34.48596 27.80025 30169 ft 392 kts 327°
2026-05-08 05:49 34.53343 27.76760 30171 ft 392 kts 327°
2026-05-08 05:50 34.58055 27.73506 30172 ft 392 kts 327°
2026-05-08 05:50 34.62810 27.70219 30164 ft 392 kts 327°
2026-05-08 05:51 34.67532 27.66952 30168 ft 392 kts 327°
2026-05-08 05:51 34.72289 27.63660 30169 ft 392 kts 327°
2026-05-08 05:52 34.77045 27.60358 30168 ft 393 kts 327°
2026-05-08 05:52 34.81768 27.57079 30164 ft 393 kts 327°
2026-05-08 05:53 34.86524 27.53767 30161 ft 393 kts 327°
2026-05-08 05:53 34.91273 27.50448 30163 ft 394 kts 327°
2026-05-08 05:54 34.96040 27.47118 30163 ft 394 kts 327°
2026-05-08 05:54 35.00774 27.43815 30162 ft 394 kts 327°
2026-05-08 05:55 35.05546 27.40474 30161 ft 395 kts 327°
2026-05-08 05:55 35.10320 27.37127 30158 ft 395 kts 327°
2026-05-08 05:56 35.15094 27.33785 30162 ft 395 kts 327°
2026-05-08 05:56 35.19874 27.30427 30156 ft 396 kts 327°
2026-05-08 05:57 35.24616 27.27094 30159 ft 396 kts 326°
2026-05-08 05:57 35.29397 27.23722 30158 ft 396 kts 326°
2026-05-08 05:58 35.34169 27.20351 30155 ft 396 kts 326°
2026-05-08 05:58 35.38945 27.16976 30156 ft 396 kts 326°
2026-05-08 05:59 35.43677 27.13602 30155 ft 395 kts 325°
2026-05-08 05:59 35.48328 27.09988 30155 ft 394 kts 323°
2026-05-08 06:00 35.52898 27.06313 30156 ft 394 kts 323°
2026-05-08 06:00 35.57509 27.02651 30155 ft 394 kts 323°
2026-05-08 06:01 35.62147 26.99001 30159 ft 394 kts 324°
2026-05-08 06:01 35.66743 26.95381 30161 ft 394 kts 323°
2026-05-08 06:02 35.71367 26.91725 30159 ft 394 kts 323°
2026-05-08 06:02 35.75991 26.88066 30157 ft 394 kts 323°
2026-05-08 06:03 35.80614 26.84407 30160 ft 394 kts 323°
2026-05-08 06:03 35.85236 26.80748 30157 ft 395 kts 323°
2026-05-08 06:04 35.89829 26.77099 30155 ft 395 kts 323°
2026-05-08 06:04 35.94446 26.73415 30153 ft 395 kts 323°
2026-05-08 06:05 35.99063 26.69714 30155 ft 395 kts 323°
2026-05-08 06:05 36.03680 26.66010 30162 ft 395 kts 323°
2026-05-08 06:06 36.08280 26.62319 30161 ft 395 kts 323°
2026-05-08 06:06 36.12899 26.58607 30159 ft 396 kts 323°
2026-05-08 06:07 36.17534 26.54886 30135 ft 398 kts 323°
2026-05-08 06:07 36.22190 26.51132 30170 ft 406 kts 323°
2026-05-08 06:08 36.26975 26.47265 30166 ft 412 kts 323°
2026-05-08 06:08 36.31787 26.43383 30168 ft 412 kts 323°
2026-05-08 06:09 36.35787 26.40144 30168 ft 412 kts 323°
2026-05-08 06:09 36.40589 26.36243 30166 ft 412 kts 323°
2026-05-08 06:10 36.45368 26.32364 30166 ft 412 kts 323°
2026-05-08 06:10 36.50176 26.28452 30165 ft 412 kts 322°
2026-05-08 06:11 36.54978 26.24542 30164 ft 412 kts 322°
2026-05-08 06:11 36.59267 26.19979 30166 ft 407 kts 313°
2026-05-08 06:12 36.63338 26.15049 30166 ft 407 kts 313°
2026-05-08 06:12 36.67392 26.10143 30159 ft 407 kts 313°
2026-05-08 06:13 36.71458 26.05215 30167 ft 407 kts 313°
2026-05-08 06:13 36.75524 26.00263 30162 ft 408 kts 313°
2026-05-08 06:14 36.79586 25.95317 30161 ft 408 kts 313°
2026-05-08 06:14 36.83657 25.90358 30163 ft 408 kts 313°
2026-05-08 06:15 36.87712 25.85412 30154 ft 409 kts 312°
2026-05-08 06:15 36.91794 25.80425 30157 ft 410 kts 312°
2026-05-08 06:16 36.95889 25.75414 30150 ft 411 kts 312°
2026-05-08 06:16 36.99958 25.70424 30137 ft 412 kts 312°
2026-05-08 06:17 37.06095 25.62878 30120 ft 412 kts 312°
2026-05-08 06:17 37.10197 25.57828 30115 ft 412 kts 311°
2026-05-08 06:18 37.14292 25.52774 30109 ft 413 kts 311°
2026-05-08 06:18 37.18358 25.47747 30116 ft 413 kts 311°
2026-05-08 06:19 37.22448 25.42683 30120 ft 412 kts 311°
2026-05-08 06:19 37.26416 25.37494 30140 ft 409 kts 304°
2026-05-08 06:20 37.28950 25.31197 30146 ft 404 kts 288°
2026-05-08 06:20 37.30739 25.24516 30145 ft 403 kts 288°
2026-05-08 06:21 37.32530 25.17877 30147 ft 402 kts 288°
2026-05-08 06:21 37.34320 25.11206 29648 ft 401 kts 287°
2026-05-08 06:22 37.35205 25.07880 29151 ft 401 kts 287°
2026-05-08 06:22 37.36087 25.04551 28640 ft 402 kts 287°
2026-05-08 06:22 37.36971 25.01214 28038 ft 402 kts 287°
2026-05-08 06:22 37.37857 24.97880 27458 ft 399 kts 287°
2026-05-08 06:23 37.38737 24.94574 26872 ft 396 kts 288°
2026-05-08 06:23 37.39611 24.91294 26297 ft 395 kts 288°
2026-05-08 06:23 37.40470 24.88069 25632 ft 393 kts 288°
2026-05-08 06:23 37.41336 24.84802 25168 ft 395 kts 288°
2026-05-08 06:24 37.42207 24.81509 24626 ft 398 kts 288°
2026-05-08 06:24 37.43086 24.78186 24093 ft 400 kts 288°
2026-05-08 06:24 37.43969 24.74842 23520 ft 402 kts 288°
2026-05-08 06:24 37.44854 24.71482 22954 ft 405 kts 288°
2026-05-08 06:25 37.45742 24.68108 22429 ft 406 kts 287°
2026-05-08 06:25 37.46616 24.64778 22034 ft 393 kts 287°
2026-05-08 06:25 37.47455 24.61580 21443 ft 386 kts 287°
2026-05-08 06:25 37.48293 24.58388 20916 ft 379 kts 287°
2026-05-08 06:26 37.49106 24.55280 20594 ft 368 kts 287°
2026-05-08 06:26 37.49908 24.52216 19987 ft 367 kts 287°
2026-05-08 06:26 37.50708 24.49148 19299 ft 369 kts 287°
2026-05-08 06:26 37.51501 24.46097 18751 ft 371 kts 287°
2026-05-08 06:27 37.52299 24.43027 18427 ft 363 kts 287°
2026-05-08 06:27 37.53071 24.40048 17774 ft 351 kts 287°
2026-05-08 06:27 37.53810 24.37205 17423 ft 331 kts 287°
2026-05-08 06:27 37.54580 24.34517 16716 ft 324 kts 295°
2026-05-08 06:28 37.55853 24.32172 16152 ft 329 kts 310°
2026-05-08 06:28 37.57654 24.30366 15640 ft 335 kts 327°
2026-05-08 06:28 37.59859 24.29309 15138 ft 343 kts 345°
2026-05-08 06:28 37.62244 24.28912 14609 ft 347 kts 350°
2026-05-08 06:29 37.64654 24.28569 14092 ft 349 kts 350°
2026-05-08 06:29 37.67075 24.28231 13527 ft 350 kts 351°
2026-05-08 06:29 37.69497 24.27894 13000 ft 350 kts 351°
2026-05-08 06:29 37.71886 24.27558 12520 ft 348 kts 351°
2026-05-08 06:30 37.74285 24.27217 12053 ft 346 kts 351°
2026-05-08 06:30 37.76675 24.26872 11670 ft 342 kts 351°
2026-05-08 06:30 37.79022 24.26533 11325 ft 337 kts 351°
2026-05-08 06:30 37.81347 24.26199 10918 ft 334 kts 351°
2026-05-08 06:31 37.83655 24.25869 10527 ft 332 kts 351°
2026-05-08 06:31 37.85901 24.25550 10344 ft 321 kts 351°
2026-05-08 06:31 37.88048 24.25247 10164 ft 302 kts 351°
2026-05-08 06:31 37.90107 24.24953 9798 ft 295 kts 351°
2026-05-08 06:32 37.92156 24.24656 9161 ft 295 kts 351°
2026-05-08 06:32 37.94210 24.24356 8448 ft 297 kts 351°
2026-05-08 06:32 37.96263 24.24057 7835 ft 296 kts 351°
2026-05-08 06:32 37.98305 24.23761 7231 ft 295 kts 351°
2026-05-08 06:33 38.00323 24.23363 6635 ft 292 kts 342°
2026-05-08 06:33 38.02234 24.22477 6023 ft 295 kts 333°
2026-05-08 06:33 38.04079 24.21346 5418 ft 298 kts 328°
2026-05-08 06:33 38.05865 24.20043 4820 ft 293 kts 323°
2026-05-08 06:34 38.07503 24.18634 4650 ft 273 kts 319°
2026-05-08 06:34 38.08940 24.17214 4586 ft 251 kts 315°
2026-05-08 06:34 38.10209 24.15765 4529 ft 239 kts 310°
2026-05-08 06:34 38.11364 24.14300 4458 ft 232 kts 308°
2026-05-08 06:35 38.12182 24.12627 4393 ft 217 kts 274°
2026-05-08 06:35 38.11944 24.10852 4338 ft 204 kts 232°
2026-05-08 06:35 38.10895 24.09705 4181 ft 203 kts 213°
2026-05-08 06:35 38.09744 24.08665 3942 ft 203 kts 216°
2026-05-08 06:36 38.08615 24.07594 3685 ft 202 kts 216°
2026-05-08 06:36 38.07494 24.06523 3424 ft 200 kts 216°
2026-05-08 06:36 38.06411 24.05486 3165 ft 190 kts 216°
2026-05-08 06:36 38.05385 24.04505 2921 ft 179 kts 215°
2026-05-08 06:37 38.04408 24.03572 2744 ft 173 kts 216°
2026-05-08 06:37 38.03476 24.02681 2482 ft 160 kts 215°
2026-05-08 06:37 38.02617 24.01861 2263 ft 153 kts 216°
2026-05-08 06:37 38.01766 24.01049 2071 ft 152 kts 215°
2026-05-08 06:38 38.00918 24.00240 1888 ft 154 kts 215°
2026-05-08 06:38 38.00074 23.99435 1698 ft 147 kts 215°
2026-05-08 06:38 37.99276 23.98674 1477 ft 143 kts 214°
2026-05-08 06:38 37.98472 23.97908 1285 ft 142 kts 216°
2026-05-08 06:39 37.97683 23.97156 1089 ft 141 kts 216°
2026-05-08 06:39 37.96899 23.96409 901 ft 142 kts 217°
2026-05-08 06:39 37.96112 23.95659 694 ft 141 kts 217°
2026-05-08 06:39 37.95323 23.94908 504 ft 142 kts 217°
2026-05-08 06:40 37.94541 23.94156 303 ft 140 kts 218°
2026-05-08 06:40 37.93867 23.93516 282 ft 97 kts 216°
2026-05-08 06:40 37.93455 23.93119 283 ft 60 kts 217°
2026-05-08 06:40 37.93195 23.92888 277 ft 33 kts 212°
2026-05-08 06:41 37.92986 23.92822 272 ft 16 kts 187°
2026-05-08 06:41 37.92853 23.92800 271 ft 24 kts 187°
2026-05-08 06:41 37.92744 23.92729 270 ft 0 kts 217°
2026-05-08 06:41 37.92730 23.92715 270 ft 7 kts 217°
2026-05-08 06:42 37.92663 23.92652 269 ft 17 kts 216°
2026-05-08 06:42 37.92577 23.92616 269 ft 10 kts 165°
2026-05-08 06:42 37.92579 23.92708 269 ft 13 kts 49°
2026-05-08 06:42 37.92649 23.92789 270 ft 0 kts 28°
2026-05-08 06:43 37.92676 23.92807 270 ft 8 kts 28°
2026-05-08 06:43 37.92734 23.92856 271 ft 13 kts 36°
2026-05-08 06:43 37.92814 23.92932 272 ft 16 kts 39°
2026-05-08 06:44 37.92908 23.93028 273 ft 18 kts 36°
2026-05-08 06:44 37.93006 23.93122 274 ft 17 kts 38°
2026-05-08 06:44 37.93100 23.93211 275 ft 17 kts 36°
2026-05-08 06:44 37.93192 23.93297 276 ft 16 kts 36°
2026-05-08 06:45 37.93281 23.93380 277 ft 16 kts 37°
2026-05-08 06:45 37.93363 23.93465 278 ft 15 kts 56°
2026-05-08 06:45 37.93349 23.93579 279 ft 13 kts 124°
2026-05-08 06:45 37.93293 23.93676 279 ft 14 kts 127°
2026-05-08 06:46 37.93235 23.93772 280 ft 14 kts 128°
2026-05-08 06:46 37.93175 23.93868 280 ft 14 kts 128°
2026-05-08 06:46 37.93116 23.93966 284 ft 14 kts 126°
2026-05-08 06:46 37.93109 23.94058 283 ft 11 kts 47°
2026-05-08 06:47 37.93165 23.94117 283 ft 10 kts 37°
2026-05-08 06:47 37.93221 23.94170 282 ft 10 kts 36°
2026-05-08 06:47 37.93259 23.94205 283 ft 10 kts 36°
2026-05-08 06:47 37.93283 23.94283 284 ft 10 kts 102°
2026-05-08 06:48 37.93230 23.94388 287 ft 11 kts 129°
2026-05-08 06:48 37.93180 23.94466 284 ft 12 kts 129°
2026-05-08 06:48 37.93162 23.94532 285 ft 12 kts 76°
2026-05-08 06:48 37.93214 23.94601 285 ft 10 kts 35°
2026-05-08 06:49 37.93274 23.94643 286 ft 9 kts
2026-05-08 06:49 37.93316 23.94594 286 ft 9 kts 300°
2026-05-08 06:49 37.93332 23.94570 286 ft 0 kts 316°